Tracking 19476 objects as of 18-Jan-2019
HD Live streaming from Space Station
objects crossing your sky now

METEOR 2-19

Track METEOR 2-19 now!
10-day predictions
METEOR 2-19 is classified as:


NORAD ID: 20670
Int'l Code: 1990-057A
Perigee: 942.1 km
Apogee: 966.9 km
Inclination: 82.5 °
Period: 104.0 minutes
Semi major axis: 7325 km
RCS: 3.921 m2 (large)
Launch date: June 27, 1990
Source: Commonwealth of Independent States (former USSR) (CIS)
Launch site: PLESETSK MISSILE AND SPACE COMPLEX (PKMTR)
aabbcc
Your satellite tracking list
Your tracking list is empty




NASA's NSSDC Master Catalog

Two Line Element Set (TLE):
1 20670U 90057A   19017.82706682  .00000038  00000-0  20537-4 0  9995
2 20670  82.5461 271.6577 0016969 124.8575 235.4184 13.84677371443220
Source of the keplerian elements: AFSPC